ROMMA est une association bénévole à but non lucratif. Votre soutien est indispensable : ADHERER à ROMMA ou FAIRE un DON

Le Versoud - (38, Isère)

Vallée du Grésivaudan (220 m)   Longitude: 05° 51' 44" E   Latitude: 45° 13' 06" N Station partenaire n°6
 

Détail journalier du     <<     >>

Température Humidité Pression Vent Dir Rafale Dir. rafale Ensol.
Heure (°C) (%) (hPa) (km/h) (km/h) (min)
01:00 18.469101300---0
02:00 17.870101300---0
03:00 17.471101300---0
04:00 16.176101300---0
05:00 15.179101200---0
06:00 14.981101300---0
07:00 14.980101300---0
08:00 17.471101300---40
09:00 19.462101302NNO60
10:00 21.358101302NNO60
11:00 22.0571012013ESE60
12:00 23.551101103NNE60
13:00 24.250101108NO60
14:00 25.646101006NO60
15:00 26.742100906ONO60
16:00 27.64210091N15NO60
17:00 28.14010082N18NE60
18:00 27.44210082N16N35
19:00 27.24010081NNE16NE20
20:00 26.34310081---19NO30
21:00 24.94410082N24NO15
22:00 24.34710091NE19ENE0
23:00 22.852100905N0
minuit 21.558100902E0

Graphique du 14-07-2019

 

Serveur OMMA